Flag for Germany Weather past 2 weeks in Berlin, Berlin, Germany

Now
42 °F

Quite cool.


Feels Like: 39 °F
Forecast: 37 / 47 °F
Wind: 6 mph from Northwest

Location: Berlin-Tempelhof

Current Time: Mar 5, 2015 at 5:44:55 PM

Latest Report: Mar 5, 2015 at 5:00 PM


Visibility: N/A

Pressure: 30.50 "Hg

Humidity: 67%

Dew point: 32 °F

Location of BerlinLocation

Historic Weather in Berlin — Graph

°F

Berlin temperature yesterday

Maximum temperature yesterday: 43 °F (at 11:00 AM)
Minimum temperature yesterday: 34 °F (at 8:00 PM)
Average temperature yesterday: 39 °F

Past Weeks' High & Low Weather Summary

 TemperatureHumidityPressure
High51 °F (Feb 27, 4:00 PM)96% (Feb 26, 2:00 AM)30.64 "Hg (Feb 26, 2:00 AM)
Low27 °F (Feb 20, 6:00 AM)42% (Feb 27, 4:00 PM)29.38 "Hg (Feb 21, 12:00 PM)
Average39 °F76%29.92 "Hg
* Reported Feb 18 4:00 PM — Mar 5 4:00 PM, Berlin, Weather by CustomWeather, © 2015

Note: Actual official high and low records may vary slightly from our data, if they occured in-between our weather recording intervals... More about our weather records

Advertising

Berlin weather history for previous 24 hours

 ConditionsComfort  
Time TempWeatherWind HumidityBarometerVisibility
4:00 PM
Thu, Mar 5
42 °FQuite cool.7 mph70%30.49 "HgN/A
3:00 PM43 °FQuite cool.6 mph70%30.48 "HgN/A
2:00 PM42 °FQuite cool.6 mph73%30.50 "HgN/A
1:00 PM41 °FQuite cool.7 mph77%30.50 "HgN/A
12:00 PM40 °FChilly.7 mph77%30.50 "HgN/A
11:00 AM39 °FChilly.7 mph76%30.48 "HgN/A
10:00 AM38 °FChilly.7 mph83%30.48 "HgN/A
9:00 AM36 °FChilly.7 mph84%30.46 "HgN/A
8:00 AM37 °FChilly.7 mph84%30.44 "HgN/A
7:00 AM38 °FChilly.7 mph86%30.40 "HgN/A
6:00 AM38 °FChilly.7 mph91%30.37 "HgN/A
5:00 AM38 °FChilly.7 mph93%30.34 "HgN/A
3:00 AM38 °FChilly.5 mph93%30.29 "HgN/A
2:00 AM38 °FChilly.3 mph90%30.27 "HgN/A
1:00 AM38 °FChilly.3 mph89%30.25 "HgN/A
12:00 AM38 °FChilly.3 mph88%30.23 "HgN/A
11:00 PM
Wed, Mar 4
37 °FChilly.3 mph86%30.21 "HgN/A
10:00 PM36 °FChilly.3 mph88%30.20 "HgN/A
9:00 PM35 °FChilly.2 mph94%30.20 "HgN/A
8:00 PM34 °FChilly.1 mph95%30.20 "HgN/A
7:00 PM40 °FQuite cool.5 mph79%30.18 "HgN/A
6:00 PM40 °FChilly.5 mph80%30.17 "HgN/A
5:00 PM40 °FQuite cool.7 mph81%30.17 "HgN/A
Weather by CustomWeather, © 2015

See weather overviewHow to use our weather pages